Hourly Weather Roundup
Issued by NWS Central Illinois

Home | Current Version | Previous Version | Text Only | Print | Product List | Glossary On
Versions: 1 2 3 4 5 6 7 8 9 10 11 12 13 14 15 16 17 18 19 20 21 22 23 24 25 26 27 28 29 30 31 32 33 34 35 36 37 38 39 40 41 42 43 44 45 46 47 48 49 50
000
NZUS43 KILX 260810
HWRILX

Area Weather Roundup
National Weather Service Lincoln IL
300 AM CDT FRI MAY 26 2017

NOTE:  "FAIR" indicates few or no clouds below 12,000 feet, with
       no sigificant weather and/or obstructions to visibility.


CITY           SKY/WX    TMP DP  RH WIND       PRES   REMARKS
Bloomington    CLOUDY    55  53  93 SE5       29.82S
Champaign      CLOUDY    54  52  93 E5        29.82R FOG
Danville       PTCLDY    52  52  99 CALM      29.80R FOG
Decatur        CLOUDY    57  55  93 SE3       29.81R
Effingham      CLOUDY    55  55 100 CALM      29.83R
Flora          CLEAR     57  55  92 CALM      29.83R
Galesburg      CLOUDY    59  56  88 E5        29.77R
Jacksonville   CLOUDY    59  54  83 SE5       29.78S
Lacon          CLOUDY    54  54 100 SE3       29.78F
Lawrenceville  CLEAR     56  55  97 CALM      29.83S
Litchfield     PTCLDY    58  53  84 SE6       29.80S
$$


CITY           SKY/WX    TMP DP  RH WIND       PRES   REMARKS
Lincoln        CLOUDY    58  57  96 CALM      29.81R
Macomb         CLOUDY    57  55  94 S8        29.79F
Mattoon        CLOUDY    56  56 100 S6        29.81S
Mt Carmel AP   CLEAR     56  53  91 CALM      29.83S
Olney-Noble AP CLOUDY    57  57 100 CALM      29.83R
Paris AP       CLEAR     54  53  98 CALM      29.83S
Peoria         CLOUDY    58  56  93 SE7       29.79F
Pontiac        CLOUDY    55  55  98 CALM      29.82S
Rantoul        PTCLDY    55  54  96 CALM      29.83R FOG
Robinson       CLOUDY    54  54 100 CALM      29.84R FOG
Springfield    CLOUDY    60  57  89 CALM      29.80R
Taylorville    CLOUDY    58  54  85 SE5       29.80F
$$

...REGIONAL REPORTS...


CITY           SKY/WX    TMP DP  RH WIND       PRES   REMARKS
Chicago O`Hare PTCLDY    53  49  86 CALM      29.80R
Kankakee       CLEAR     51  49  95 CALM      29.82S
Moline         CLOUDY    61  55  81 SE6       29.77R
Mount Sterling CLOUDY    58  54  86 E3        29.77R
Mount Vernon     N/A     52  51  97 CALM      29.82R
Pittsfield     CLOUDY    61  55  80 SE3       29.78S
Quincy         PTCLDY    65  51  60 S9        29.75S
Rockford       CLOUDY    57  53  86 SE3       29.81S
$$


CITY           SKY/WX    TMP DP  RH WIND       PRES   REMARKS
Burlington     CLOUDY    61  54  77 SE6       29.75S
Cedar Rapids   CLOUDY    56  54  93 E7        29.75S
Des Moines     MOCLDY    62  52  69 E7        29.69F
Kirksville     CLOUDY    61  54  77 SE7       29.72F
Ottumwa        CLOUDY    63  52  67 SE9       29.71S
St Louis       MOCLDY    66  53  63 S5        29.78F
$$


CITY           SKY/WX    TMP DP  RH WIND       PRES   REMARKS
Terre Haute    CLEAR     52  50  93 CALM      29.83R FOG
Evansville     PTCLDY    56  53  90 CALM      29.84F
Indianapolis   PTCLDY    52  51  97 W3        29.83R FOG
Lafayette      FOG       50  50 100 CALM      29.82R VSB 3/4
Madison        CLOUDY    56  54  93 E7        29.79S
Milwaukee      MOCLDY    54  51  90 CALM      29.81R
$$






USA.gov is the U.S. government's official web portal to all federal, state and local government web resources and services.